TimeCST,TemperatureF,Dew PointF,Humidity,Sea Level PressureIn,VisibilityMPH,Wind Direction,Wind SpeedMPH,Gust SpeedMPH,PrecipitationIn,Events,Conditions,WindDirDegrees,DateUTC
12:15 AM,38.7,33.4,81,30.09,10.0,NE,3.5,-,N/A,,Scattered Clouds,40,2013-02-12 06:15:00
12:35 AM,40.1,33.3,77,30.09,10.0,NE,3.5,-,N/A,,Mostly Cloudy,50,2013-02-12 06:35:00
12:55 AM,39.2,32.9,78,30.08,10.0,Calm,Calm,-,N/A,,Scattered Clouds,0,2013-02-12 06:55:00
1:15 AM,37.9,32.9,82,30.05,10.0,ENE,5.8,-,N/A,,Clear,60,2013-02-12 07:15:00
1:35 AM,37.6,32.5,82,30.04,10.0,ENE,4.6,-,N/A,,Clear,70,2013-02-12 07:35:00
1:55 AM,36.7,32.5,85,30.01,10.0,NE,4.6,-,N/A,,Clear,50,2013-02-12 07:55:00
2:15 AM,37.4,32.9,84,30.01,10.0,Calm,Calm,-,N/A,,Clear,0,2013-02-12 08:15:00
2:35 AM,38.1,33.1,82,30.01,10.0,Calm,Calm,-,N/A,,Clear,0,2013-02-12 08:35:00
2:55 AM,38.3,32.9,81,30.00,10.0,NNE,4.6,-,N/A,,Clear,30,2013-02-12 08:55:00
3:15 AM,38.5,34.0,84,30.08,10.0,West,5.8,-,N/A,,Mostly Cloudy,280,2013-02-12 09:15:00
3:35 AM,39.7,34.0,80,30.05,10.0,Calm,Calm,-,N/A,,Mostly Cloudy,0,2013-02-12 09:35:00
3:55 AM,37.6,33.1,84,30.01,10.0,ENE,3.5,-,N/A,,Scattered Clouds,60,2013-02-12 09:55:00
4:15 AM,37.8,33.3,84,30.01,10.0,ENE,4.6,-,N/A,,Clear,70,2013-02-12 10:15:00
4:35 AM,39.2,33.4,80,30.00,10.0,ENE,4.6,-,N/A,,Clear,60,2013-02-12 10:35:00
4:55 AM,39.2,33.8,81,30.00,10.0,Calm,Calm,-,N/A,,Mostly Cloudy,0,2013-02-12 10:55:00
5:15 AM,40.1,34.9,82,30.05,10.0,Calm,Calm,-,N/A,,Overcast,0,2013-02-12 11:15:00
5:35 AM,40.1,34.9,82,29.98,10.0,NE,8.1,-,N/A,Rain,Light Rain,50,2013-02-12 11:35:00
5:55 AM,39.4,35.6,86,29.97,10.0,ENE,5.8,-,N/A,Rain,Light Rain,70,2013-02-12 11:55:00
6:15 AM,39.9,35.6,85,29.99,10.0,North,5.8,-,N/A,,Overcast,360,2013-02-12 12:15:00
6:35 AM,40.1,36.5,87,29.96,10.0,NNE,6.9,-,N/A,Rain,Light Rain,30,2013-02-12 12:35:00
6:55 AM,40.3,36.5,86,29.96,10.0,North,6.9,-,N/A,Rain,Light Rain,10,2013-02-12 12:55:00
7:15 AM,41.0,37.4,87,29.96,10.0,NE,6.9,-,N/A,Rain,Light Rain,40,2013-02-12 13:15:00
7:35 AM,41.0,38.3,90,29.96,10.0,East,5.8,-,N/A,Rain,Light Rain,80,2013-02-12 13:35:00
7:55 AM,41.0,38.5,91,29.96,10.0,NE,4.6,-,N/A,Rain,Light Rain,50,2013-02-12 13:55:00
8:15 AM,41.5,39.6,93,29.97,7.0,NNE,5.8,-,N/A,Rain,Light Rain,30,2013-02-12 14:15:00
8:35 AM,41.9,39.6,91,29.97,10.0,NNE,4.6,-,N/A,Rain,Rain,20,2013-02-12 14:35:00
8:55 AM,41.9,39.6,91,29.98,5.0,NE,9.2,-,N/A,Rain,Rain,50,2013-02-12 14:55:00
9:15 AM,41.9,40.1,93,29.98,10.0,NNE,9.2,-,N/A,Rain-Thunderstorm,Light Thunderstorms and Rain,30,2013-02-12 15:15:00
9:35 AM,42.3,40.1,92,29.97,10.0,ENE,11.5,-,N/A,Rain,Light Rain,60,2013-02-12 15:35:00
9:55 AM,42.3,40.1,92,29.97,10.0,NNE,6.9,-,N/A,,Drizzle,30,2013-02-12 15:55:00
10:15 AM,42.3,39.7,91,29.93,10.0,ENE,15.0,20.7,N/A,,Light Drizzle,60,2013-02-12 16:15:00
10:35 AM,42.4,39.6,90,29.93,10.0,ENE,11.5,20.7,N/A,Rain-Thunderstorm,Light Thunderstorms and Rain,60,2013-02-12 16:35:00
10:55 AM,42.4,39.7,90,29.96,10.0,NNE,9.2,18.4,N/A,Rain,Rain,20,2013-02-12 16:55:00
11:15 AM,42.3,40.1,92,29.94,7.0,ENE,13.8,20.7,N/A,Rain,Rain,70,2013-02-12 17:15:00
11:35 AM,42.3,40.3,93,29.92,7.0,ENE,13.8,20.7,N/A,Rain,Light Rain,70,2013-02-12 17:35:00
11:55 AM,42.4,40.3,92,29.93,10.0,East,6.9,-,N/A,,Overcast,80,2013-02-12 17:55:00
12:15 PM,42.8,40.5,91,29.96,10.0,Calm,Calm,-,N/A,Rain,Light Rain,0,2013-02-12 18:15:00
12:35 PM,42.8,40.5,91,29.96,3.0,Calm,Calm,-,N/A,,Heavy Drizzle,0,2013-02-12 18:35:00
12:55 PM,42.8,41.0,93,29.96,3.0,NNE,3.5,-,N/A,,Heavy Drizzle,30,2013-02-12 18:55:00
1:15 PM,42.8,41.4,95,29.94,3.0,East,10.4,-,N/A,,Heavy Drizzle,80,2013-02-12 19:15:00
1:35 PM,42.8,41.2,94,29.91,4.0,ENE,10.4,-,N/A,,Drizzle,70,2013-02-12 19:35:00
1:55 PM,42.8,40.8,93,29.90,4.0,East,12.7,20.7,N/A,,Light Drizzle,90,2013-02-12 19:55:00
2:15 PM,42.8,40.6,92,29.89,5.0,East,8.1,-,N/A,,Overcast,80,2013-02-12 20:15:00
2:35 PM,42.8,40.5,91,29.89,10.0,East,6.9,-,N/A,,Overcast,80,2013-02-12 20:35:00
2:55 PM,42.8,40.5,91,29.89,5.0,East,6.9,-,N/A,,Overcast,80,2013-02-12 20:55:00
3:15 PM,42.8,40.5,91,29.87,3.0,East,10.4,18.4,N/A,Rain,Light Rain,80,2013-02-12 21:15:00
3:35 PM,42.8,41.0,93,29.87,4.0,East,8.1,-,N/A,,Light Drizzle,90,2013-02-12 21:35:00
3:55 PM,42.8,41.2,94,29.87,4.0,East,8.1,-,N/A,,Overcast,80,2013-02-12 21:55:00
4:15 PM,42.1,40.6,95,29.87,3.0,East,8.1,-,N/A,,Light Drizzle,80,2013-02-12 22:15:00
4:35 PM,42.1,40.6,95,29.87,4.0,ENE,8.1,-,N/A,,Overcast,70,2013-02-12 22:35:00
4:55 PM,42.1,40.6,95,29.87,3.0,East,5.8,-,N/A,,Drizzle,80,2013-02-12 22:55:00
5:15 PM,41.9,40.6,95,29.87,3.0,ENE,8.1,-,N/A,,Heavy Drizzle,70,2013-02-12 23:15:00
5:35 PM,41.9,40.6,95,29.87,3.0,East,6.9,-,N/A,,Drizzle,80,2013-02-12 23:35:00
5:55 PM,41.9,40.6,95,29.89,4.0,East,5.8,-,N/A,,Light Drizzle,90,2013-02-12 23:55:00
6:15 PM,41.9,40.5,95,29.90,4.0,ENE,3.5,-,N/A,,Heavy Drizzle,60,2013-02-13 00:15:00
6:35 PM,41.9,40.6,95,29.90,4.0,North,3.5,-,N/A,,Drizzle,10,2013-02-13 00:35:00
6:55 PM,41.5,40.5,96,29.91,5.0,NE,3.5,-,N/A,,Drizzle,40,2013-02-13 00:55:00
7:15 PM,41.5,40.6,97,29.92,4.0,NE,3.5,-,N/A,,Drizzle,40,2013-02-13 01:15:00
7:35 PM,41.5,40.6,97,29.92,5.0,NNE,3.5,-,N/A,,Drizzle,30,2013-02-13 01:35:00
8:15 PM,41.5,40.6,97,29.93,10.0,NNE,3.5,-,N/A,,Light Drizzle,30,2013-02-13 02:15:00
8:35 PM,41.4,40.3,96,29.94,7.0,North,3.5,-,N/A,,Light Drizzle,10,2013-02-13 02:35:00
8:55 PM,41.5,40.3,95,29.94,7.0,Calm,Calm,-,N/A,,Drizzle,0,2013-02-13 02:55:00
9:15 PM,41.7,40.6,96,29.95,5.0,NNW,4.6,-,N/A,,Drizzle,340,2013-02-13 03:15:00
9:35 PM,41.5,40.5,96,29.95,7.0,North,6.9,-,N/A,,Drizzle,360,2013-02-13 03:35:00
9:55 PM,41.4,40.5,97,29.95,7.0,NNW,6.9,-,N/A,,Light Drizzle,340,2013-02-13 03:55:00
10:15 PM,41.5,40.5,96,29.95,10.0,North,8.1,-,N/A,,Overcast,350,2013-02-13 04:15:00
10:35 PM,41.4,40.1,95,29.95,10.0,NNW,8.1,-,N/A,,Overcast,340,2013-02-13 04:35:00
10:55 PM,41.2,39.7,95,29.96,10.0,NNW,9.2,-,N/A,,Overcast,340,2013-02-13 04:55:00
11:15 PM,41.0,39.2,93,29.96,10.0,NNW,11.5,-,N/A,,Overcast,340,2013-02-13 05:15:00
11:35 PM,40.3,38.3,93,29.96,10.0,NNW,12.7,18.4,N/A,,Overcast,340,2013-02-13 05:35:00
11:55 PM,40.1,38.1,93,29.98,10.0,North,13.8,18.4,N/A,,Overcast,350,2013-02-13 05:55:00